Location: Barcelona
(41.3830°N, 2.1830°E)
Time: 22:53:32
(UTC+02:00)

ISS - Pass Details

Date: 26 July 2017
Orbit: 400 x 408 km, 51.6° (Epoch: 24 July)

Event Time Altitude Azimuth Distance (km) Brightness Sun altitude
Rises 02:26:03 0° 309° (NW) 2,314 0.4 -28.8°
Reaches altitude 10° 02:28:35 10° 329° (NNW) 1,454 -0.4 -28.8°
Enters shadow 02:29:17 13° 339° (NNW) 1,271 -0.7 -28.8°
